{"data":{"norad_id":63130,"intl_designator":"2025-042A","name":"COSMOS 2584 (704K)","alt_names":[],"object_type":"PAYLOAD","status":"INACTIVE","operator":null,"country":"CIS","launch_date":"2025-03-02","launch_site_code":"PLMSC","launch_vehicle":null,"mission":null,"orbit_class":"UNKNOWN","rcs_meters":null,"size_class":null,"mass_kg":null,"dimensions":null,"purposes":["nav"],"wikipedia_slug":null,"has_3d_model":false,"image_url":null,"decayed_at":null,"tle_current":{"epoch":"2026-09-19T11:03:48.165696Z","epoch_age_seconds":104312,"freshness":"FRESH","line1":"1 63130U 25042A   26262.46097414  .00000029  00000+0  00000+0 0  9998","line2":"2 63130  65.1442  69.6002 0006647 202.9598 157.0425  2.13103522 12059","mean_motion":2.13103522,"eccentricity":0.0006647,"inclination_deg":65.1442,"raan_deg":69.6002,"arg_perigee_deg":202.9598,"mean_anomaly_deg":157.0425,"bstar":0,"rev_number":1205,"period_min":675.72792156856,"perigee_km":19112.810870904,"apogee_km":19146.721077118,"semimajor_km":25507.902974011,"source":"CELESTRAK","updated_at":"2026-09-20T09:00:46.280209Z"}}}